EHI
5 5 4 3 2 1 0 0 0 0 0 0 0 0 0 0 0 0 0 2 5 6 4 4 5 3 1 0 0 0 0 0 0 0 0 0 0 0 0 0 0 0 0 0 0 0 0 0 0
3 3 3 2 1 0 0 0 0 0 0 0 0 0 0 0 0 0 0 2 5 5 4 4 5 4 1 0 0 0 0 0 0 0 0 0 0 0 0 0 0 0 0 0 0 0 0 0 0
1 2 2 2 0 0 0 0 1 1 0 0 0 0 0 1 1 1 1 3 5 4 4 5 6 5 2 0 0 0 0 0 0 0 0 0 0 0 0 0 0 0 0 0 0 0 0 0 0
1 1 2 1 0 0 0 0 1 1 1 1 1 0 0 3 4 3 2 4 4 3 3 5 6 5 2 0 0 0 0 0 0 0 0 0 0 0 0 0 0 0 0 0 0 0 0 0 0
0 1 1 1 0 0 0 1 2 3 2 2 3 2 3 9 12 8 3 3 4 3 2 4 5 4 2 0 0 0 0 0 0 0 0 0 0 0 0 0 0 0 0 0 0 0 0 0 0
1 0 0 0 0 0 0 2 4 3 2 2 4 3 5 15 19 12 5 2 3 3 3 4 4 4 2 1 0 0 0 0 0 0 0 0 0 0 0 0 0 0 0 0 0 0 0 0 0
1 0 0 0 0 0 0 2 3 3 2 2 3 3 5 13 19 15 9 4 3 4 4 4 4 3 2 1 0 0 0 0 0 0 0 0 0 0 0 0 0 0 0 0 0 0 0 0 0
1 0 0 0 0 0 0 0 1 2 2 2 1 2 5 12 20 21 15 8 5 4 5 4 3 2 1 1 0 0 0 0 0 0 0 0 0 0 0 0 0 0 0 0 0 0 1 1 0
0 0 0 0 0 0 0 0 0 1 2 2 2 5 10 20 30 30 23 15 10 7 5 4 2 1 0 0 0 0 0 0 0 0 0 0 0 0 0 0 0 1 0 0 0 1 2 2 1
0 0 0 0 0 0 0 0 0 2 3 4 7 10 15 26 38 37 29 22 16 10 6 4 3 2 1 0 0 0 0 0 0 0 0 0 0 0 0 0 1 2 1 0 0 2 3 2 1
0 0 0 0 0 0 0 0 1 2 4 8 12 13 15 24 33 35 29 23 19 13 8 5 4 4 2 1 1 0 0 0 0 0 0 0 0 0 0 0 0 1 0 0 0 1 2 1 0
0 0 0 0 0 0 0 1 2 3 5 10 15 14 13 19 25 27 26 21 20 18 13 9 8 6 4 3 2 1 0 0 0 0 0 1 1 0 0 0 0 0 0 0 0 0 0 0 0
0 0 0 0 1 2 2 5 8 8 9 13 16 13 11 16 22 26 26 25 25 26 23 18 15 12 8 6 4 3 2 2 2 1 1 2 1 0 0 0 0 0 0 0 0 0 0 0 0
0 0 0 1 2 3 5 9 14 16 17 17 16 12 10 16 25 32 33 33 35 39 36 30 27 21 13 9 7 6 5 5 4 3 3 2 1 0 0 0 0 0 0 0 0 0 0 0 0
0 0 0 0 1 3 5 9 16 23 25 22 18 13 12 19 30 36 38 40 44 50 48 42 37 29 18 12 10 7 6 7 7 6 5 3 1 0 0 0 0 0 0 0 0 0 0 0 0
0 0 0 0 0 1 3 7 16 26 31 28 22 18 18 24 32 39 42 44 49 55 54 48 40 32 22 15 10 7 7 8 8 7 6 3 1 2 1 0 0 0 0 0 0 0 1 0 0
0 0 0 0 0 0 2 6 15 26 33 33 28 26 27 29 35 43 49 52 53 54 54 50 42 33 26 17 11 8 7 6 7 8 8 5 2 3 3 1 0 0 0 0 0 0 0 0 0
0 0 0 0 0 0 1 5 13 22 31 35 36 36 35 36 40 49 58 61 58 56 56 54 46 38 31 23 15 10 6 5 5 8 9 8 5 5 5 3 1 0 0 0 0 0 0 0 0
0 0 0 0 0 0 1 4 10 19 27 36 42 44 44 45 48 56 66 71 67 63 62 60 54 45 37 28 20 12 7 4 5 7 8 8 8 9 8 5 3 2 1 0 0 0 0 0 0
0 0 0 0 0 0 1 3 8 15 25 35 44 50 54 57 58 64 74 79 75 70 66 63 57 49 40 31 22 13 7 4 5 6 6 7 8 10 10 8 7 5 3 2 0 0 0 0 0
0 0 0 0 0 0 1 2 5 13 23 33 43 53 62 67 69 73 80 83 79 74 69 63 56 49 40 32 24 16 9 6 5 6 8 9 9 11 12 12 10 9 6 4 2 2 1 1 0
0 0 0 0 0 0 0 0 4 13 25 35 43 53 65 72 74 76 80 80 78 74 70 62 55 48 40 33 28 21 14 9 5 6 10 12 12 13 14 14 13 11 9 7 5 5 4 3 2
0 0 0 0 0 0 0 0 3 12 24 36 44 53 64 71 72 71 73 74 72 70 66 60 53 46 38 34 29 23 17 11 6 7 11 14 14 15 16 15 13 12 11 9 8 7 6 5 3
0 0 0 0 0 0 0 0 1 6 17 30 42 54 63 68 69 68 70 70 68 66 65 60 52 44 37 33 29 23 17 11 7 7 10 12 13 14 15 14 13 13 12 11 9 7 6 5 4
0 0 0 0 0 0 0 0 0 3 10 22 36 50 59 64 66 68 70 69 67 66 63 59 51 43 37 32 27 21 16 12 9 7 7 9 11 12 13 14 13 13 13 12 9 7 6 5 5
0 0 0 0 0 0 0 0 1 4 9 19 31 43 53 60 64 66 67 67 66 63 59 55 48 40 34 30 24 19 15 12 10 8 6 7 8 9 10 12 14 14 13 11 8 6 5 5 4
0 0 0 0 0 0 0 0 3 7 13 20 31 42 51 57 61 62 61 61 60 57 56 53 47 38 32 28 23 17 14 12 11 9 7 7 7 7 7 10 12 12 10 7 6 5 4 3 2
0 0 0 0 0 0 0 0 2 8 16 23 33 43 49 53 56 56 56 54 53 54 54 51 45 38 31 27 23 18 15 12 10 9 8 8 7 6 6 7 8 8 6 4 3 3 3 3 3
0 0 0 0 0 0 0 0 2 7 16 25 33 40 45 49 52 53 52 48 47 50 51 45 38 33 30 27 23 19 16 13 11 9 8 7 6 5 5 5 5 4 3 1 1 1 2 2 2
0 0 0 0 0 0 0 0 2 7 16 25 32 37 44 48 51 52 51 48 46 47 46 39 32 28 28 26 23 19 16 13 11 9 7 5 5 5 5 4 3 2 1 1 1 1 1 1 1
Wind_Speed
3 3 1 1 5 6 6 5 9 9 7 8 11 11 10 8 7 9 4 12 13 10 8 11 13 14 14 14 14 14 14 14 14 14 14 14 14 15 15 15 15 15 15 14 15 15 15 15 15
2 1 1 3 6 5 4 6 12 12 11 12 13 13 11 10 11 12 8 12 13 10 7 10 14 14 14 13 13 13 14 14 14 13 14 14 14 14 14 14 14 14 14 13 14 14 14 14 14
2 1 3 4 3 4 5 8 12 12 10 10 8 8 7 9 11 8 10 14 11 9 7 10 15 14 14 13 13 13 13 13 13 13 13 13 13 13 13 14 14 13 13 13 13 13 13 13 12
1 3 4 5 3 3 8 9 13 14 10 9 10 9 6 7 8 13 17 15 13 9 7 10 15 14 14 13 13 13 13 13 12 12 13 13 13 13 13 13 13 13 12 12 12 12 12 11 11
3 5 6 4 3 3 7 11 12 11 6 9 11 10 7 7 18 19 17 16 14 9 6 9 15 14 14 13 13 12 12 12 12 12 12 12 12 13 13 12 12 12 11 11 11 10 10 9 9
4 5 5 2 3 3 6 11 13 15 14 13 13 11 6 12 18 17 16 14 13 11 8 8 14 14 13 13 13 12 12 12 12 12 12 12 12 12 12 11 11 11 10 10 9 9 8 7 7
4 4 2 1 2 4 6 8 11 13 13 9 11 9 7 11 15 16 15 14 12 11 8 6 7 9 12 13 13 12 12 12 12 12 12 12 11 11 11 10 10 10 9 8 8 7 6 5 4
4 5 1 1 4 4 5 5 8 13 10 12 9 9 11 13 15 15 14 12 11 9 8 6 5 5 5 6 11 12 12 11 11 11 11 11 11 10 10 9 9 9 8 7 6 5 4 3 2
4 5 1 3 5 4 6 8 6 8 11 7 5 9 15 18 19 17 13 10 9 9 7 7 6 5 5 5 8 9 11 10 9 8 10 8 4 4 5 7 8 8 7 6 5 3 2 0 1
4 4 6 5 6 6 7 10 8 7 9 9 12 13 15 17 19 18 15 13 11 11 9 8 8 7 6 6 5 3 4 4 4 3 4 3 3 3 4 6 8 7 6 4 3 2 1 1 1
3 4 4 3 6 7 7 5 5 10 8 14 19 18 15 15 15 16 14 14 14 13 11 10 9 8 7 4 4 2 2 3 3 4 4 3 2 2 2 2 2 2 3 1 1 1 1 1 1
0 4 3 3 5 7 7 5 5 6 10 14 17 18 14 14 14 14 14 12 12 12 11 11 10 8 7 5 4 3 3 3 3 3 5 4 3 3 2 2 2 2 1 2 1 1 2 2 2
1 3 2 2 5 7 8 7 7 6 11 14 15 14 13 12 11 10 12 11 10 10 10 10 10 9 7 6 4 5 4 4 4 4 4 5 4 4 3 3 2 3 2 2 2 2 2 2 2
2 3 3 2 3 6 10 6 7 8 14 15 14 12 12 12 11 10 10 9 10 10 10 9 9 9 8 6 4 4 4 4 4 3 4 5 4 4 4 3 3 3 3 3 3 3 2 2 2
3 4 5 2 2 4 9 5 6 13 15 14 13 11 10 10 11 12 12 11 10 10 9 9 8 7 7 6 5 4 4 4 4 3 4 5 5 5 4 3 3 3 3 3 2 2 1 1 1
4 4 2 4 2 2 8 5 7 13 15 13 12 11 10 9 11 11 12 10 10 10 10 9 9 7 6 5 4 3 3 4 4 4 4 5 5 5 4 3 3 3 2 2 2 2 1 1 1
5 1 3 6 2 3 5 5 8 12 14 13 12 12 11 9 9 10 12 12 11 11 10 8 7 7 6 5 4 3 3 3 3 3 3 4 5 4 3 3 2 2 2 2 2 2 2 2 2
3 2 2 4 4 3 4 5 9 12 14 14 12 11 11 12 11 11 11 11 10 10 9 8 7 7 6 4 3 2 2 2 2 3 3 4 4 4 3 2 2 2 2 1 1 2 2 2 2
4 2 5 7 4 3 5 6 10 11 11 12 11 11 12 11 9 9 10 10 10 8 8 8 8 6 5 3 3 2 2 1 2 3 4 4 4 4 4 2 2 2 2 3 3 2 2 1 1
4 3 5 5 3 4 5 5 6 10 13 15 15 14 13 10 8 9 9 9 10 10 8 8 8 7 6 4 3 2 2 2 2 1 2 4 4 4 4 4 3 3 3 3 3 2 1 2 2
5 5 4 3 2 2 4 1 2 4 5 8 10 12 12 14 13 11 11 10 9 10 10 9 7 7 6 5 3 2 1 1 0 1 2 3 4 4 4 4 4 3 3 3 3 3 4 3 2
6 6 4 2 3 1 3 1 5 4 3 7 9 9 10 11 10 10 11 10 10 9 9 8 7 7 6 6 5 4 3 3 3 3 2 3 4 4 4 3 3 3 3 3 4 3 3 3 3
7 4 2 2 3 2 2 3 6 2 5 9 10 11 12 11 12 11 11 11 10 9 8 7 7 6 6 6 6 5 3 3 2 1 2 2 2 3 3 3 3 3 3 3 3 3 3 3 3
3 4 6 6 6 1 3 3 5 5 10 11 10 12 12 12 12 10 9 8 8 8 8 7 7 6 6 6 6 6 5 3 2 2 2 1 1 2 2 2 3 3 3 3 3 3 3 3 3
4 8 5 5 5 5 4 2 8 7 7 11 13 12 12 11 11 10 10 10 9 9 9 8 8 7 6 7 6 6 5 4 3 3 2 2 1 1 2 2 2 2 2 2 3 3 3 3 3
4 11 9 5 4 5 4 3 7 4 2 5 8 9 10 10 9 9 9 9 9 9 8 8 8 7 6 6 5 4 4 3 2 2 2 2 2 2 2 2 1 1 1 1 2 2 2 2 2
5 4 9 8 2 1 4 4 5 3 4 5 5 8 9 9 10 9 9 8 8 8 7 8 8 6 6 6 5 4 4 3 2 2 2 1 1 1 1 1 1 1 0 1 0 0 1 1 1
8 7 7 6 4 1 4 3 4 2 2 4 6 7 7 7 8 8 8 7 7 7 6 6 7 6 5 5 5 4 4 3 3 2 2 1 0 0 1 1 1 1 0 0 0 0 0 1 1
4 4 6 5 6 6 2 7 6 8 7 7 6 7 7 8 9 8 7 7 7 6 6 6 5 5 4 4 4 4 3 3 3 2 2 2 1 1 1 1 1 1 1 0 0 0 0 1 1
8 8 9 6 4 5 4 8 5 6 7 8 7 7 8 7 7 8 8 8 7 7 6 6 5 4 4 4 4 4 4 4 3 3 2 2 2 2 1 1 2 1 1 1 1 1 1 1 1
Wind_Direction
256 238 173 54 46 52 76 85 95 83 64 62 71 81 79 64 100 123 134 130 131 128 124 121 118 114 111 109 107 104 102 101 101 101 102 103 103 103 103 103 102 101 101 101 101 102 102 103 105
243 194 86 56 72 75 79 99 97 100 117 105 83 83 78 73 90 113 122 132 131 127 123 123 121 117 115 113 111 108 106 105 104 104 106 106 105 105 105 104 104 104 104 103 103 104 103 103 104
232 155 82 66 86 129 120 112 110 108 110 103 95 75 75 106 114 120 136 137 129 124 123 130 124 121 117 115 113 112 110 109 108 108 108 108 108 107 107 107 107 107 107 105 105 106 104 104 103
67 49 46 63 94 152 132 127 119 110 89 84 95 79 74 110 118 131 136 134 127 123 126 133 127 124 122 120 118 116 115 114 112 111 111 111 112 111 111 110 109 108 108 108 106 106 105 103 101
76 64 46 34 66 108 121 122 121 112 99 97 98 98 80 91 120 131 136 135 131 129 130 133 131 129 127 125 124 122 121 119 118 116 115 115 116 115 115 114 113 112 111 110 109 108 106 103 99
52 64 66 37 59 83 111 119 112 109 115 111 108 106 103 127 131 138 138 136 136 137 135 136 136 135 133 131 130 128 126 124 123 121 120 120 120 119 120 118 118 117 115 113 113 111 107 102 95
107 88 115 133 106 115 128 126 125 128 130 130 125 107 123 143 142 141 137 135 136 138 136 133 137 137 137 136 134 134 131 130 129 128 127 125 126 125 126 124 124 123 121 121 119 118 112 103 92
137 100 86 156 134 132 140 119 131 135 124 132 132 129 151 157 142 134 131 133 136 140 141 138 132 131 134 136 139 138 137 136 135 133 134 133 133 133 132 131 133 133 131 130 128 126 122 104 84
107 86 186 197 150 153 135 115 122 109 124 148 125 132 149 142 136 133 133 134 143 148 152 150 148 147 144 147 147 145 143 144 141 139 142 137 129 129 136 145 146 144 143 142 142 142 145 79 21
103 137 208 198 161 150 141 132 133 116 116 107 108 121 137 137 141 145 150 154 158 162 168 165 162 163 164 160 141 147 148 145 144 146 146 141 146 158 156 161 160 158 158 163 175 196 251 319 345
145 180 207 190 153 147 143 131 115 123 133 146 143 146 149 144 148 153 158 163 166 168 170 171 170 171 171 155 155 164 155 156 163 166 165 154 149 154 150 152 163 166 172 184 228 254 284 291 287
191 254 195 163 140 143 147 128 110 135 159 155 150 151 152 153 157 158 161 164 164 166 171 169 171 173 173 162 167 168 165 169 175 180 173 159 155 161 163 173 178 186 194 203 228 236 246 253 259
34 318 336 126 136 136 123 121 121 125 136 141 145 149 156 157 158 159 159 157 156 158 160 165 163 163 163 160 172 170 178 181 181 177 179 168 164 171 174 188 194 200 199 201 214 228 232 234 236
305 346 343 58 108 128 122 123 114 141 142 146 152 160 164 160 157 154 154 155 158 158 157 160 158 159 156 160 165 166 179 181 176 178 181 175 172 174 176 186 197 208 208 205 208 214 217 232 220
0 12 358 48 133 147 110 92 143 153 149 153 160 166 168 165 160 162 165 163 159 156 155 158 159 157 156 157 161 157 166 169 175 178 180 176 173 172 174 178 190 206 206 199 197 210 199 215 203
17 36 350 289 160 179 115 152 174 158 153 160 168 169 169 169 168 167 166 162 159 156 157 164 164 159 159 157 154 151 156 164 174 176 174 171 173 171 165 175 197 205 194 182 176 185 188 228 221
13 49 260 286 259 166 118 162 175 167 162 168 174 172 169 167 169 170 168 165 164 163 161 164 160 162 165 163 160 152 148 159 169 171 175 175 174 171 165 182 205 202 182 182 193 185 178 201 231
248 275 287 264 262 154 142 174 172 178 175 175 176 172 170 174 179 175 170 165 163 164 162 162 160 166 164 157 143 127 121 153 159 167 180 178 178 173 169 183 207 194 173 187 191 198 200 195 210
221 256 275 273 239 158 169 178 180 183 180 179 176 173 176 180 175 167 166 161 155 159 161 163 162 167 161 155 154 153 177 192 183 187 182 182 185 181 177 187 196 192 192 202 200 195 214 228 181
237 259 278 295 217 161 168 195 187 186 186 184 179 177 177 170 168 167 164 162 164 167 167 165 166 167 170 173 167 163 163 184 195 195 189 194 192 193 197 194 200 201 198 206 206 195 198 233 177
256 214 224 239 310 55 109 3 226 212 191 183 182 178 173 174 177 175 172 173 167 169 172 173 172 171 174 166 148 133 102 56 166 206 206 214 203 200 204 201 203 205 195 205 216 202 194 218 229
254 229 206 172 98 300 118 188 266 208 191 187 183 178 177 175 175 176 175 174 175 176 171 168 168 171 173 164 160 160 167 187 211 203 201 218 215 207 204 203 206 207 200 207 221 208 198 194 216
222 213 168 135 121 43 23 128 272 194 198 203 189 180 176 175 176 177 182 180 177 172 168 166 164 169 170 169 168 165 175 195 205 194 191 217 226 218 211 210 207 205 207 212 217 216 209 202 203
198 62 38 47 68 32 246 160 254 223 206 195 188 183 176 174 175 173 178 168 167 166 165 162 165 176 175 171 168 173 179 184 188 200 200 223 239 236 231 206 209 212 210 209 209 218 216 216 214
89 84 40 9 16 260 263 170 242 239 215 189 181 181 176 170 169 166 166 168 170 169 169 168 170 179 176 170 171 177 178 176 186 198 201 206 216 232 241 215 210 214 218 205 204 216 218 213 212
162 133 149 177 210 277 323 233 262 268 198 170 164 160 160 162 164 165 168 168 167 169 168 166 172 176 172 170 175 174 172 174 189 191 182 194 199 215 228 212 211 229 224 217 209 226 210 194 214
150 161 162 135 159 322 299 300 320 28 71 91 120 138 157 162 161 161 161 161 156 160 165 167 168 167 167 171 167 164 167 169 173 164 155 169 194 190 202 189 176 198 239 254 193 243 198 188 215
156 154 100 111 138 252 300 289 243 238 153 128 137 146 156 154 149 148 149 154 152 151 153 152 154 160 165 166 163 159 161 163 156 139 136 129 102 60 73 67 94 105 116 262 173 184 231 159 248
153 130 116 126 151 153 220 268 231 197 177 151 155 151 150 156 151 148 145 147 139 132 132 134 138 145 152 154 150 148 146 145 136 128 124 110 86 70 79 71 65 69 51 323 115 304 58 86 4
166 170 144 148 204 160 163 262 269 188 166 154 155 151 148 151 147 143 140 134 133 136 134 130 129 138 147 142 133 131 128 124 116 106 97 89 77 62 61 55 58 60 53 74 111 125 87 85 47